User: anonymous   Login
Location: ActonStarParty
(42.4766°N, 71.4538°W)
Time: 12:32:25
(UTC-04:00)
Language:

ITAMSAT 1 - Orbit

View from above orbital plane
View from above orbital plane
View from above satellite
View from above satellite

Ground track
Ground track

The orbit data is extracted from the following two-line orbital elements,

1 22826U 93061D   18113.88479175 +.00000024 +00000-0 +26950-4 0  9994
2 22826 098.8522 089.0749 0009730 130.1195 230.0840 14.30359160281743
Epoch (UTC): 23 April 2018 21:14:06
Eccentricity: 0.0009730
inclination: 98.8522°
perigee height: 783 km
apogee height: 797 km
right ascension of ascending node: 89.0749°
argument of perigee: 130.1195°
revolutions per day: 14.30359160
mean anomaly at epoch: 230.0840°
orbit number at epoch: 28174

The dashed part of the orbit path shows where the satellite is in the earth's shadow,  

DLR